Regional Weather Roundup
Issued by NWS

Home | Current Version | Previous Version | Graphics & Text | Print | Product List | Glossary On
Versions: 1 2 3 4 5 6 7 8 9 10 11 12 13 14 15 16 17 18 19 20 21 22 23 24 25 26 27 28 29 30 31 32 33 34 35 36 37 38 39 40 41 42 43 44 45 46 47 48 49 50
000
ASUS43 KBIS 291920
RWRND

NORTH DAKOTA REGIONAL WEATHER ROUNDUP
NATIONAL WEATHER SERVICE BISMARCK ND
200 PM CDT TUE JUL 29 2014

NOTE: "FAIR" INDICATES FEW OR NO CLOUDS BELOW 12,000 FEET WITH NO
SIGNIFICANT WEATHER AND/OR OBSTRUCTIONS TO VISIBILITY.


NDZ001>003-009>011-017-292000-
NORTHWEST NORTH DAKOTA

CITY           SKY/WX    TMP DP  RH WIND       PRES   REMARKS
WILLISTON      MOSUNNY   82  51  34 NW8       30.18F
MINOT          CLOUDY    75  57  53 NE3       30.18F
MINOT AFB      SUNNY     76  58  53 VRB3      30.17F
$$

NDZ018>021-031>035-040>046-292000-
SOUTHWEST NORTH DAKOTA

CITY           SKY/WX    TMP DP  RH WIND       PRES   REMARKS
BISMARCK       MOSUNNY   79  53  40 CALM      30.20F
DICKINSON      MOSUNNY   79  53  40 S6        30.19F
GARRISON         N/A     76  57  51 NW3       30.19F
HETTINGER ARPT MOSUNNY   79  50  36 W8        30.23S
$$

NDZ004>008-012>016-024-026-027-054-292000-
NORTHEAST NORTH DAKOTA

CITY           SKY/WX    TMP DP  RH WIND       PRES   REMARKS
GRAND FORKS    MOSUNNY   77  56  48 NW3       30.14F
GRND FRKS AFB  MOSUNNY   76  56  48 VRB6      30.16F
DEVILS LAKE    MOSUNNY   73  55  53 NW10G16   30.17S
$$

NDZ022-023-025-028>030-036>039-047>053-292000-
SOUTHEAST NORTH DAKOTA

CITY           SKY/WX    TMP DP  RH WIND       PRES   REMARKS
FARGO          MOSUNNY   78  52  40 NW10G18   30.14F
JAMESTOWN      PTSUNNY   74  52  46 N6        30.18F
$$




USA.gov is the U.S. government's official web portal to all federal, state and local government web resources and services.